When you browse on this site, cookies collect data to enhance your experience and personalize the content and advertising you see.
Visit our Privacy Policy to learn more. By continuing to use the site, you agree to this use of cookies and data.
  • en Suisse
  • Liste des pays
  • À 7 jours
  • Température de l'eau
  • Carte météo
  • Widgets météo
  • user-avatar
    Se connecter

    Météo par heure à Tiranё

    Ce jour, 20 Octobre, Dimanche

    Heure Température Précipitation Vent Pression Humidité
    00:00 +19°C° 0 mm 1 m/s 757 mmHg 76%
    01:00 +18°C° 0 mm 2 m/s 757 mmHg 75%
    02:00 +17°C° 0 mm 2 m/s 757 mmHg 75%
    03:00 +18°C° 0 mm 1 m/s 757 mmHg 75%
    04:00 +18°C° 0 mm 1 m/s 757 mmHg 75%
    05:00 +18°C° 0 mm 1 m/s 757 mmHg 73%
    06:00 +18°C° 0 mm 2 m/s 757 mmHg 71%
    07:00 +19°C° 0 mm 2 m/s 757 mmHg 68%
    08:00 +22°C° 0 mm 1 m/s 757 mmHg 61%
    09:00 +23°C° 0 mm 1 m/s 758 mmHg 55%
    10:00 +25°C° 0 mm 1 m/s 758 mmHg 48%
    11:00 +26°C° 0 mm 1 m/s 757 mmHg 46%
    12:00 +27°C° 0 mm 2 m/s 757 mmHg 44%
    13:00 +27°C° 0 mm 2 m/s 757 mmHg 41%
    14:00 +26°C° 0 mm 2 m/s 757 mmHg 48%
    15:00 +25°C° 0 mm 2 m/s 757 mmHg 54%
    16:00 +24°C° 0 mm 2 m/s 757 mmHg 60%
    17:00 +23°C° 0 mm 1 m/s 757 mmHg 66%
    18:00 +21°C° 0 mm 1 m/s 757 mmHg 71%
    19:00 +20°C° 0 mm 1 m/s 757 mmHg 76%
    20:00 +20°C° 0 mm 1 m/s 758 mmHg 77%
    21:00 +19°C° 0 mm 1 m/s 758 mmHg 77%
    22:00 +19°C° 0 mm 1 m/s 758 mmHg 77%
    23:00 +19°C° 0 mm 1 m/s 758 mmHg 78%

    Demain, 21 Octobre, Lundi

    Heure Température Précipitation Vent Pression Humidité
    00:00 +19°C° 0 mm 1 m/s 758 mmHg 78%
    01:00 +19°C° 0 mm 1 m/s 758 mmHg 78%
    02:00 +18°C° 0 mm 1 m/s 758 mmHg 78%
    03:00 +18°C° 0 mm 1 m/s 758 mmHg 77%
    04:00 +18°C° 0 mm 1 m/s 758 mmHg 77%
    05:00 +19°C° 0 mm 1 m/s 758 mmHg 74%
    06:00 +19°C° 0 mm 1 m/s 758 mmHg 71%
    07:00 +20°C° 0 mm 1 m/s 758 mmHg 68%
    08:00 +22°C° 0 mm 1 m/s 758 mmHg 61%
    09:00 +24°C° 0 mm 1 m/s 758 mmHg 53%
    10:00 +26°C° 0 mm 2 m/s 758 mmHg 46%
    11:00 +26°C° 0 mm 2 m/s 758 mmHg 44%
    12:00 +27°C° 0 mm 3 m/s 758 mmHg 42%
    13:00 +28°C° 0 mm 3 m/s 758 mmHg 39%
    14:00 +27°C° 0 mm 4 m/s 757 mmHg 43%
    15:00 +26°C° 0 mm 4 m/s 757 mmHg 47%
    16:00 +25°C° 0 mm 4 m/s 757 mmHg 50%
    17:00 +22°C° 0 mm 3 m/s 757 mmHg 56%
    18:00 +21°C° 0 mm 2 m/s 757 mmHg 61%
    19:00 +19°C° 0 mm 2 m/s 758 mmHg 66%
    20:00 +19°C° 0 mm 2 m/s 758 mmHg 66%
    21:00 +19°C° 0 mm 2 m/s 758 mmHg 66%
    22:00 +20°C° 0 mm 1 m/s 758 mmHg 66%
    23:00 +19°C° 0 mm 1 m/s 758 mmHg 66%

    Après-demain, 22 Octobre, Mardi

    Heure Température Précipitation Vent Pression Humidité
    00:00 +19°C° 0 mm 1 m/s 758 mmHg 65%
    01:00 +19°C° 0 mm 1 m/s 757 mmHg 64%
    02:00 +19°C° 0 mm 1 m/s 757 mmHg 63%
    03:00 +19°C° 0 mm 1 m/s 757 mmHg 62%
    04:00 +19°C° 0 mm 1 m/s 757 mmHg 61%
    05:00 +19°C° 0 mm 1 m/s 757 mmHg 59%
    06:00 +20°C° 0 mm 1 m/s 757 mmHg 56%
    07:00 +20°C° 0 mm 1 m/s 757 mmHg 54%
    08:00 +22°C° 0 mm 1 m/s 757 mmHg 48%
    09:00 +25°C° 0 mm 2 m/s 757 mmHg 41%
    10:00 +27°C° 0 mm 2 m/s 757 mmHg 35%
    11:00 +28°C° 0 mm 2 m/s 757 mmHg 34%
    12:00 +29°C° 0 mm 3 m/s 757 mmHg 33%
    13:00 +30°C° 0 mm 3 m/s 757 mmHg 32%
    14:00 +28°C° 0 mm 3 m/s 756 mmHg 37%
    15:00 +27°C° 0 mm 3 m/s 756 mmHg 43%
    16:00 +26°C° 0 mm 3 m/s 756 mmHg 48%
    17:00 +24°C° 0 mm 3 m/s 756 mmHg 52%
    18:00 +23°C° 0 mm 2 m/s 756 mmHg 56%
    19:00 +21°C° 0 mm 1 m/s 757 mmHg 60%
    20:00 +21°C° 0 mm 1 m/s 757 mmHg 58%
    21:00 +21°C° 0 mm 1 m/s 757 mmHg 56%
    22:00 +21°C° 0 mm 1 m/s 757 mmHg 55%
    23:00 +20°C° 0 mm 1 m/s 757 mmHg 53%

    23 Octobre, Mercredi

    Heure Température Précipitation Vent Pression Humidité
    00:00 +20°C° 0 mm 1 m/s 757 mmHg 50%
    01:00 +20°C° 0 mm 1 m/s 757 mmHg 48%
    02:00 +20°C° 0 mm 1 m/s 757 mmHg 47%
    03:00 +19°C° 0 mm 1 m/s 757 mmHg 46%
    04:00 +19°C° 0 mm 1 m/s 757 mmHg 46%
    05:00 +19°C° 0 mm 1 m/s 756 mmHg 46%
    06:00 +20°C° 0 mm 1 m/s 756 mmHg 46%
    07:00 +20°C° 0 mm 1 m/s 756 mmHg 46%
    08:00 +23°C° 0 mm 1 m/s 756 mmHg 40%
    09:00 +25°C° 0 mm 1 m/s 756 mmHg 35%
    10:00 +26°C° 0 mm 0 m/s 756 mmHg 29%
    11:00 +28°C° 0 mm 1 m/s 756 mmHg 29%
    12:00 +29°C° 0 mm 2 m/s 756 mmHg 28%
    13:00 +29°C° 0 mm 3 m/s 755 mmHg 28%
    14:00 +28°C° 0 mm 2 m/s 755 mmHg 33%
    15:00 +27°C° 0 mm 2 m/s 755 mmHg 38%
    16:00 +26°C° 0 mm 2 m/s 755 mmHg 43%
    17:00 +24°C° 0 mm 2 m/s 755 mmHg 46%
    18:00 +23°C° 0 mm 2 m/s 755 mmHg 48%
    19:00 +21°C° 0 mm 1 m/s 755 mmHg 51%
    20:00 +21°C° 0 mm 1 m/s 755 mmHg 50%
    21:00 +21°C° 0 mm 1 m/s 755 mmHg 49%
    22:00 +20°C° 0 mm 1 m/s 756 mmHg 49%
    23:00 +20°C° 0 mm 1 m/s 755 mmHg 47%

    24 Octobre, Jeudi

    Heure Température Précipitation Vent Pression Humidité
    00:00 +20°C° 0 mm 1 m/s 755 mmHg 46%
    01:00 +19°C° 0 mm 1 m/s 755 mmHg 44%
    02:00 +19°C° 0 mm 1 m/s 755 mmHg 44%
    03:00 +18°C° 0 mm 2 m/s 755 mmHg 43%
    04:00 +18°C° 0 mm 2 m/s 754 mmHg 43%
    05:00 +18°C° 0 mm 2 m/s 754 mmHg 42%
    06:00 +18°C° 0 mm 2 m/s 754 mmHg 42%
    07:00 +19°C° 0 mm 1 m/s 754 mmHg 42%
    08:00 +22°C° 0 mm 1 m/s 754 mmHg 37%
    09:00 +24°C° 0 mm 1 m/s 754 mmHg 32%
    10:00 +27°C° 0 mm 1 m/s 754 mmHg 28%
    11:00 +27°C° 0 mm 2 m/s 754 mmHg 27%
    12:00 +28°C° 0 mm 2 m/s 753 mmHg 27%
    13:00 +29°C° 0 mm 2 m/s 753 mmHg 27%
    14:00 +27°C° 0 mm 2 m/s 753 mmHg 35%
    15:00 +26°C° 0 mm 2 m/s 753 mmHg 44%
    16:00 +25°C° 0 mm 2 m/s 752 mmHg 53%
    17:00 +23°C° 0 mm 2 m/s 752 mmHg 57%
    18:00 +21°C° 0 mm 2 m/s 753 mmHg 62%
    19:00 +19°C° 0 mm 2 m/s 753 mmHg 67%
    20:00 +19°C° 0 mm 2 m/s 753 mmHg 66%
    21:00 +19°C° 0 mm 2 m/s 753 mmHg 64%
    22:00 +18°C° 0 mm 2 m/s 753 mmHg 62%
    23:00 +18°C° 0 mm 2 m/s 753 mmHg 60%

    25 Octobre, Vendredi

    Heure Température Précipitation Vent Pression Humidité
    00:00 +18°C° 0 mm 2 m/s 753 mmHg 57%
    01:00 +19°C° 0 mm 1 m/s 753 mmHg 55%
    02:00 +18°C° 0 mm 1 m/s 753 mmHg 52%
    03:00 +18°C° 0 mm 1 m/s 752 mmHg 48%
    04:00 +18°C° 0 mm 1 m/s 752 mmHg 45%
    05:00 +17°C° 0 mm 2 m/s 752 mmHg 44%
    06:00 +18°C° 0 mm 2 m/s 753 mmHg 42%
    07:00 +18°C° 0 mm 2 m/s 753 mmHg 41%
    08:00 +20°C° 0 mm 2 m/s 753 mmHg 37%
    09:00 +23°C° 0 mm 2 m/s 753 mmHg 33%
    10:00 +25°C° 0 mm 2 m/s 753 mmHg 29%
    11:00 +26°C° 0 mm 2 m/s 753 mmHg 29%
    12:00 +27°C° 0 mm 1 m/s 753 mmHg 28%
    13:00 +28°C° 0 mm 1 m/s 752 mmHg 27%
    14:00 +27°C° 0 mm 2 m/s 752 mmHg 33%
    15:00 +25°C° 0 mm 2 m/s 752 mmHg 39%
    16:00 +24°C° 0 mm 2 m/s 752 mmHg 45%
    17:00 +23°C° 0 mm 1 m/s 752 mmHg 49%
    18:00 +21°C° 0 mm 1 m/s 752 mmHg 54%
    19:00 +17°C° 0 mm 0 m/s 752 mmHg 58%
    20:00 +17°C° 0 mm 0 m/s 752 mmHg 58%
    21:00 +19°C° 0 mm 1 m/s 753 mmHg 57%
    22:00 +19°C° 0 mm 1 m/s 753 mmHg 57%
    23:00 +18°C° 0 mm 1 m/s 753 mmHg 56%
    Voir plus